Time,TemperatureF,DewpointF,PressureIn,WindDirection,WindDirectionDegrees,WindSpeedMPH,WindSpeedGustMPH,Humidity,HourlyPrecipIn,Conditions,Clouds,dailyrainin,SoftwareType,DateUTC
2013-03-02 00:02:00,60.1,15.1,29.81,NNE,33,0.0,0.0,17,0.00,,,0.00,meteohub,2013-03-02 08:02:00,
2013-03-02 00:08:00,59.9,14.9,29.81,NNE,33,0.0,0.0,17,0.00,,,0.00,meteohub,2013-03-02 08:08:00,
2013-03-02 00:14:00,60.3,15.3,29.81,ENE,75,0.0,0.0,17,0.00,,,0.00,meteohub,2013-03-02 08:14:00,
2013-03-02 00:20:00,60.4,15.4,29.81,ENE,66,0.0,0.0,17,0.00,,,0.00,meteohub,2013-03-02 08:20:00,
2013-03-02 00:26:00,59.7,14.9,29.81,NNE,19,0.0,0.0,17,0.00,,,0.00,meteohub,2013-03-02 08:26:00,
2013-03-02 00:32:00,59.5,14.7,29.81,NNE,19,0.0,0.0,17,0.00,,,0.00,meteohub,2013-03-02 08:32:00,
2013-03-02 00:38:00,59.9,14.9,29.81,NNE,19,0.0,0.0,17,0.00,,,0.00,meteohub,2013-03-02 08:38:00,
2013-03-02 00:44:00,61.3,14.7,29.81,NE,53,5.0,0.0,16,0.00,,,0.00,meteohub,2013-03-02 08:44:00,
2013-03-02 00:50:00,62.8,16.0,29.81,ENE,76,6.0,6.0,16,0.00,,,0.00,meteohub,2013-03-02 08:50:00,
2013-03-02 00:56:00,63.3,16.3,29.81,WSW,248,0.0,6.0,16,0.00,,,0.00,meteohub,2013-03-02 08:56:00,
2013-03-02 01:02:00,61.3,14.7,29.81,SW,216,0.0,6.0,16,0.00,,,0.00,meteohub,2013-03-02 09:02:00,
2013-03-02 01:08:00,59.5,14.7,29.81,SW,220,0.0,5.0,17,0.00,,,0.00,meteohub,2013-03-02 09:08:00,
2013-03-02 01:14:00,59.0,14.2,29.81,SE,143,0.0,3.0,17,0.00,,,0.00,meteohub,2013-03-02 09:14:00,
2013-03-02 01:20:00,58.8,14.0,29.81,NW,323,3.0,4.0,17,0.00,,,0.00,meteohub,2013-03-02 09:20:00,
2013-03-02 01:26:00,58.5,13.8,29.81,NNE,31,3.0,4.0,17,0.00,,,0.00,meteohub,2013-03-02 09:26:00,
2013-03-02 01:32:00,58.3,13.6,29.81,North,353,0.0,4.0,17,0.00,,,0.00,meteohub,2013-03-02 09:32:00,
2013-03-02 01:39:00,59.5,14.7,29.81,ENE,59,4.0,4.0,17,0.00,,,0.00,meteohub,2013-03-02 09:39:00,
2013-03-02 01:45:00,59.7,14.9,29.81,NNE,33,0.0,3.0,17,0.00,,,0.00,meteohub,2013-03-02 09:45:00,
2013-03-02 01:51:00,59.0,14.2,29.81,North,11,2.0,4.0,17,0.00,,,0.00,meteohub,2013-03-02 09:51:00,
2013-03-02 01:57:00,58.1,13.5,29.81,North,353,0.0,4.0,17,0.00,,,0.00,meteohub,2013-03-02 09:57:00,
2013-03-02 02:03:00,58.1,13.5,29.81,NNE,22,0.0,5.0,17,0.00,,,0.00,meteohub,2013-03-02 10:03:00,
2013-03-02 02:09:00,59.0,14.2,29.81,NE,39,3.0,5.0,17,0.00,,,0.00,meteohub,2013-03-02 10:09:00,
2013-03-02 02:15:00,58.8,14.0,29.78,NE,40,4.0,4.0,17,0.00,,,0.00,meteohub,2013-03-02 10:15:00,
2013-03-02 02:21:00,58.3,13.6,29.78,NE,41,2.0,4.0,17,0.00,,,0.00,meteohub,2013-03-02 10:21:00,
2013-03-02 02:27:00,58.5,13.8,29.78,North,0,0.0,4.0,17,0.00,,,0.00,meteohub,2013-03-02 10:27:00,
2013-03-02 02:33:00,57.7,13.3,29.78,North,349,0.0,4.0,17,0.00,,,0.00,meteohub,2013-03-02 10:33:00,
2013-03-02 02:40:00,59.4,14.5,29.78,South,183,0.0,0.0,17,0.00,,,0.00,meteohub,2013-03-02 10:40:00,
2013-03-02 02:46:00,60.1,15.1,29.78,East,98,0.0,0.0,17,0.00,,,0.00,meteohub,2013-03-02 10:46:00,
2013-03-02 02:52:00,59.9,14.9,29.78,NE,47,0.0,0.0,17,0.00,,,0.00,meteohub,2013-03-02 10:52:00,
2013-03-02 02:58:00,61.0,14.5,29.78,NE,53,0.0,0.0,16,0.00,,,0.00,meteohub,2013-03-02 10:58:00,
2013-03-02 03:04:00,61.0,14.5,29.78,East,98,0.0,0.0,16,0.00,,,0.00,meteohub,2013-03-02 11:04:00,
2013-03-02 03:10:00,62.8,16.0,29.78,SSW,199,3.0,4.0,16,0.00,,,0.00,meteohub,2013-03-02 11:10:00,
2013-03-02 03:16:00,63.0,16.0,29.78,South,181,0.0,4.0,16,0.00,,,0.00,meteohub,2013-03-02 11:16:00,
2013-03-02 03:22:00,61.5,14.9,29.78,ESE,118,0.0,4.0,16,0.00,,,0.00,meteohub,2013-03-02 11:22:00,
2013-03-02 03:28:00,60.1,15.1,29.78,SSW,195,0.0,4.0,17,0.00,,,0.00,meteohub,2013-03-02 11:28:00,
2013-03-02 03:34:00,59.4,14.5,29.78,NE,56,4.0,0.0,17,0.00,,,0.00,meteohub,2013-03-02 11:34:00,
2013-03-02 03:40:00,58.8,14.0,29.78,NE,42,3.0,4.0,17,0.00,,,0.00,meteohub,2013-03-02 11:40:00,
2013-03-02 03:46:00,58.8,14.0,29.78,NE,45,0.0,4.0,17,0.00,,,0.00,meteohub,2013-03-02 11:46:00,
2013-03-02 03:52:00,58.3,13.6,29.78,NE,46,0.0,3.0,17,0.00,,,0.00,meteohub,2013-03-02 11:52:00,
2013-03-02 03:58:00,58.1,13.5,29.78,ENE,58,0.0,3.0,17,0.00,,,0.00,meteohub,2013-03-02 11:58:00,
2013-03-02 04:04:00,57.9,13.3,29.78,NE,55,0.0,4.0,17,0.00,,,0.00,meteohub,2013-03-02 12:04:00,
2013-03-02 04:11:00,57.9,13.3,29.78,NE,51,0.0,4.0,17,0.00,,,0.00,meteohub,2013-03-02 12:11:00,
2013-03-02 04:17:00,57.9,13.3,29.78,ENE,59,0.0,0.0,17,0.00,,,0.00,meteohub,2013-03-02 12:17:00,
2013-03-02 04:23:00,57.9,13.3,29.78,NE,54,0.0,0.0,17,0.00,,,0.00,meteohub,2013-03-02 12:23:00,
2013-03-02 04:29:00,57.7,13.3,29.78,NE,54,0.0,0.0,17,0.00,,,0.00,meteohub,2013-03-02 12:29:00,
2013-03-02 04:35:00,57.0,12.6,29.78,ENE,67,0.0,0.0,17,0.00,,,0.00,meteohub,2013-03-02 12:35:00,
2013-03-02 04:41:00,56.8,12.4,29.78,ENE,67,0.0,0.0,17,0.00,,,0.00,meteohub,2013-03-02 12:41:00,
2013-03-02 04:47:00,56.3,12.0,29.78,NE,35,0.0,0.0,17,0.00,,,0.00,meteohub,2013-03-02 12:47:00,
2013-03-02 04:53:00,55.8,11.7,29.78,NNE,20,0.0,0.0,17,0.00,,,0.00,meteohub,2013-03-02 12:53:00,
2013-03-02 04:59:00,55.8,11.7,29.78,East,80,0.0,0.0,17,0.00,,,0.00,meteohub,2013-03-02 12:59:00,
2013-03-02 05:05:00,56.1,11.8,29.78,NE,44,0.0,0.0,17,0.00,,,0.00,meteohub,2013-03-02 13:05:00,
2013-03-02 05:11:00,55.9,11.7,29.78,NE,38,0.0,0.0,17,0.00,,,0.00,meteohub,2013-03-02 13:11:00,
2013-03-02 05:17:00,55.6,11.5,29.78,NE,35,0.0,0.0,17,0.00,,,0.00,meteohub,2013-03-02 13:17:00,
2013-03-02 05:23:00,55.9,11.7,29.78,NE,48,0.0,0.0,17,0.00,,,0.00,meteohub,2013-03-02 13:23:00,
2013-03-02 05:29:00,56.3,12.0,29.78,NNE,32,0.0,0.0,17,0.00,,,0.00,meteohub,2013-03-02 13:29:00,
2013-03-02 05:35:00,56.7,12.4,29.78,NE,34,0.0,0.0,17,0.00,,,0.00,meteohub,2013-03-02 13:35:00,
2013-03-02 05:41:00,57.6,13.1,29.78,NW,326,0.0,0.0,17,0.00,,,0.00,meteohub,2013-03-02 13:41:00,
2013-03-02 05:47:00,57.6,13.1,29.78,NW,326,0.0,0.0,17,0.00,,,0.00,meteohub,2013-03-02 13:47:00,
2013-03-02 05:53:00,57.6,13.1,29.78,WSW,244,3.0,0.0,17,0.00,,,0.00,meteohub,2013-03-02 13:53:00,
2013-03-02 05:59:00,57.4,12.9,29.78,NNE,26,0.0,4.0,17,0.00,,,0.00,meteohub,2013-03-02 13:59:00,
2013-03-02 06:05:00,57.0,12.6,29.78,NNE,26,0.0,4.0,17,0.00,,,0.00,meteohub,2013-03-02 14:05:00,
2013-03-02 06:11:00,56.7,12.4,29.78,North,357,0.0,0.0,17,0.00,,,0.00,meteohub,2013-03-02 14:11:00,
2013-03-02 06:17:00,56.8,12.4,29.78,North,357,0.0,0.0,17,0.00,,,0.00,meteohub,2013-03-02 14:17:00,
2013-03-02 06:23:00,57.2,12.7,29.78,NNE,17,0.0,0.0,17,0.00,,,0.00,meteohub,2013-03-02 14:23:00,
2013-03-02 06:29:00,57.2,12.7,29.78,NNE,17,0.0,0.0,17,0.00,,,0.00,meteohub,2013-03-02 14:29:00,
2013-03-02 06:35:00,57.6,13.1,29.78,ENE,73,0.0,3.0,17,0.00,,,0.00,meteohub,2013-03-02 14:35:00,
2013-03-02 06:41:00,58.6,14.0,29.78,East,83,0.0,3.0,17,0.00,,,0.00,meteohub,2013-03-02 14:41:00,
2013-03-02 06:47:00,59.2,14.4,29.78,East,83,0.0,3.0,17,0.00,,,0.00,meteohub,2013-03-02 14:47:00,
2013-03-02 06:53:00,58.8,14.0,29.78,NNE,29,0.0,0.0,17,0.00,,,0.00,meteohub,2013-03-02 14:53:00,
2013-03-02 06:59:00,58.3,13.6,29.78,NNE,31,0.0,0.0,17,0.00,,,0.00,meteohub,2013-03-02 14:59:00,
2013-03-02 07:05:00,58.5,13.8,29.78,NE,43,0.0,0.0,17,0.00,,,0.00,meteohub,2013-03-02 15:05:00,
2013-03-02 07:11:00,58.6,14.0,29.78,NE,49,0.0,0.0,17,0.00,,,0.00,meteohub,2013-03-02 15:11:00,
2013-03-02 07:17:00,59.4,14.5,29.78,NE,49,0.0,0.0,17,0.00,,,0.00,meteohub,2013-03-02 15:17:00,
2013-03-02 07:22:00,59.9,14.9,29.78,NE,49,0.0,0.0,17,0.00,,,0.00,meteohub,2013-03-02 15:22:00,
2013-03-02 07:28:00,60.3,15.3,29.81,ENE,59,0.0,0.0,17,0.00,,,0.00,meteohub,2013-03-02 15:28:00,
2013-03-02 07:34:00,60.6,15.6,29.81,ENE,59,0.0,0.0,17,0.00,,,0.00,meteohub,2013-03-02 15:34:00,
2013-03-02 07:40:00,61.3,14.7,29.81,ENE,59,0.0,0.0,16,0.00,,,0.00,meteohub,2013-03-02 15:40:00,
2013-03-02 07:46:00,61.5,14.9,29.81,ENE,59,0.0,0.0,16,0.00,,,0.00,meteohub,2013-03-02 15:46:00,
2013-03-02 07:52:00,62.4,15.6,29.81,ENE,59,0.0,0.0,16,0.00,,,0.00,meteohub,2013-03-02 15:52:00,
2013-03-02 07:58:00,62.6,15.8,29.81,ENE,59,0.0,0.0,16,0.00,,,0.00,meteohub,2013-03-02 15:58:00,
2013-03-02 08:04:00,63.1,16.2,29.81,ENE,59,0.0,0.0,16,0.00,,,0.00,meteohub,2013-03-02 16:04:00,
2013-03-02 08:10:00,63.9,16.7,29.81,ENE,59,0.0,0.0,16,0.00,,,0.00,meteohub,2013-03-02 16:10:00,
2013-03-02 08:16:00,64.9,16.2,29.81,ENE,59,0.0,0.0,15,0.00,,,0.00,meteohub,2013-03-02 16:16:00,
2013-03-02 08:22:00,65.8,21.2,29.81,SSW,207,0.0,0.0,18,0.00,,,0.00,meteohub,2013-03-02 16:22:00,
2013-03-02 08:28:00,66.4,20.3,29.81,SW,222,0.0,0.0,17,0.00,,,0.00,meteohub,2013-03-02 16:28:00,
2013-03-02 08:34:00,66.9,20.7,29.81,WSW,251,0.0,0.0,17,0.00,,,0.00,meteohub,2013-03-02 16:34:00,
2013-03-02 08:40:00,67.1,20.8,29.81,SW,226,0.0,3.0,17,0.00,,,0.00,meteohub,2013-03-02 16:40:00,
2013-03-02 08:46:00,68.0,21.6,29.81,SSW,205,3.0,0.0,17,0.00,,,0.00,meteohub,2013-03-02 16:46:00,
2013-03-02 08:52:00,68.4,21.9,29.81,WSW,251,0.0,3.0,17,0.00,,,0.00,meteohub,2013-03-02 16:52:00,
2013-03-02 08:58:00,68.5,21.9,29.81,WNW,284,0.0,3.0,17,0.00,,,0.00,meteohub,2013-03-02 16:58:00,
2013-03-02 09:04:00,69.3,22.6,29.81,WSW,239,0.0,3.0,17,0.00,,,0.00,meteohub,2013-03-02 17:04:00,
2013-03-02 09:10:00,72.0,23.4,29.81,SSW,207,3.0,0.0,16,0.00,,,0.00,meteohub,2013-03-02 17:10:00,
2013-03-02 09:16:00,72.1,23.5,29.81,SW,224,3.0,4.0,16,0.00,,,0.00,meteohub,2013-03-02 17:16:00,
2013-03-02 09:22:00,74.1,25.0,29.81,South,182,3.0,4.0,16,0.00,,,0.00,meteohub,2013-03-02 17:22:00,
2013-03-02 09:28:00,77.2,25.9,29.81,SSW,202,3.0,4.0,15,0.00,,,0.00,meteohub,2013-03-02 17:28:00,
2013-03-02 09:34:00,83.3,29.1,29.81,WSW,257,0.0,4.0,14,0.00,,,0.00,meteohub,2013-03-02 17:34:00,
2013-03-02 09:40:00,81.1,27.5,29.81,SSW,210,3.0,4.0,14,0.00,,,0.00,meteohub,2013-03-02 17:40:00,
2013-03-02 09:46:00,86.7,30.0,29.81,WSW,246,3.0,4.0,13,0.00,,,0.00,meteohub,2013-03-02 17:46:00,
2013-03-02 09:52:00,84.9,28.6,29.81,SW,215,4.0,4.0,13,0.00,,,0.00,meteohub,2013-03-02 17:52:00,
2013-03-02 09:59:00,84.7,28.4,29.81,WSW,257,4.0,4.0,13,0.00,,,0.00,meteohub,2013-03-02 17:59:00,
2013-03-02 10:05:00,81.1,27.5,29.81,NNW,331,4.0,4.0,14,0.00,,,0.00,meteohub,2013-03-02 18:05:00,
2013-03-02 10:11:00,83.3,29.1,29.81,North,9,0.0,5.0,14,0.00,,,0.00,meteohub,2013-03-02 18:11:00,
2013-03-02 10:17:00,84.4,28.2,29.81,WSW,243,4.0,5.0,13,0.00,,,0.00,meteohub,2013-03-02 18:17:00,
2013-03-02 10:23:00,86.9,30.2,29.81,SW,224,0.0,6.0,13,0.00,,,0.00,meteohub,2013-03-02 18:23:00,
2013-03-02 10:29:00,86.9,30.2,29.81,WSW,257,3.0,6.0,13,0.00,,,0.00,meteohub,2013-03-02 18:29:00,
2013-03-02 10:35:00,88.5,31.5,29.81,WNW,297,3.0,4.0,13,0.00,,,0.00,meteohub,2013-03-02 18:35:00,
2013-03-02 10:41:00,90.0,30.6,29.81,South,187,0.0,5.0,12,0.00,,,0.00,meteohub,2013-03-02 18:41:00,
2013-03-02 10:47:00,86.5,29.8,29.81,WNW,284,4.0,5.0,13,0.00,,,0.00,meteohub,2013-03-02 18:47:00,
2013-03-02 10:53:00,89.8,30.4,29.81,WNW,288,3.0,6.0,12,0.00,,,0.00,meteohub,2013-03-02 18:53:00,
2013-03-02 10:59:00,88.3,31.3,29.81,NW,305,5.0,6.0,13,0.00,,,0.00,meteohub,2013-03-02 18:59:00,
2013-03-02 11:05:00,88.9,31.6,29.81,North,353,5.0,6.0,13,0.00,,,0.00,meteohub,2013-03-02 19:05:00,
2013-03-02 11:11:00,89.6,30.2,29.81,West,259,4.0,6.0,12,0.00,,,0.00,meteohub,2013-03-02 19:11:00,
2013-03-02 11:17:00,89.4,32.2,29.81,NNW,330,4.0,6.0,13,0.00,,,0.00,meteohub,2013-03-02 19:17:00,
2013-03-02 11:23:00,89.8,30.4,29.81,WNW,296,5.0,6.0,12,0.00,,,0.00,meteohub,2013-03-02 19:23:00,
2013-03-02 11:29:00,88.5,31.5,29.81,WSW,255,5.0,6.0,13,0.00,,,0.00,meteohub,2013-03-02 19:29:00,
2013-03-02 11:35:00,85.8,29.3,29.81,WSW,237,6.0,6.0,13,0.00,,,0.00,meteohub,2013-03-02 19:35:00,
2013-03-02 11:41:00,87.1,30.2,29.81,WSW,247,4.0,6.0,13,0.00,,,0.00,meteohub,2013-03-02 19:41:00,
2013-03-02 11:47:00,87.3,30.4,29.81,WNW,298,3.0,6.0,13,0.00,,,0.00,meteohub,2013-03-02 19:47:00,
2013-03-02 11:53:00,89.1,31.8,29.81,WNW,288,3.0,6.0,13,0.00,,,0.00,meteohub,2013-03-02 19:53:00,
2013-03-02 12:00:00,87.6,30.7,29.78,West,261,5.0,6.0,13,0.00,,,0.00,meteohub,2013-03-02 20:00:00,
2013-03-02 12:06:00,91.2,31.5,29.78,NNW,343,2.0,6.0,12,0.00,,,0.00,meteohub,2013-03-02 20:06:00,
2013-03-02 12:12:00,89.6,30.2,29.78,WNW,284,6.0,6.0,12,0.00,,,0.00,meteohub,2013-03-02 20:12:00,
2013-03-02 12:18:00,90.1,30.7,29.78,WNW,293,5.0,6.0,12,0.00,,,0.00,meteohub,2013-03-02 20:18:00,
2013-03-02 12:24:00,88.2,31.1,29.78,SW,226,5.0,6.0,13,0.00,,,0.00,meteohub,2013-03-02 20:24:00,
2013-03-02 12:30:00,90.1,30.7,29.78,NNW,333,5.0,7.0,12,0.00,,,0.00,meteohub,2013-03-02 20:30:00,
2013-03-02 12:36:00,93.0,32.9,29.78,West,281,5.0,7.0,12,0.00,,,0.00,meteohub,2013-03-02 20:36:00,
2013-03-02 12:42:00,88.2,31.1,29.78,NNW,339,3.0,7.0,13,0.00,,,0.00,meteohub,2013-03-02 20:42:00,
2013-03-02 12:48:00,90.1,30.7,29.78,NNW,336,4.0,7.0,12,0.00,,,0.00,meteohub,2013-03-02 20:48:00,
2013-03-02 12:54:00,87.1,30.2,29.78,WNW,286,2.0,7.0,13,0.00,,,0.00,meteohub,2013-03-02 20:54:00,
2013-03-02 13:00:00,90.1,30.7,29.75,WNW,291,0.0,6.0,12,0.00,,,0.00,meteohub,2013-03-02 21:00:00,
2013-03-02 13:06:00,94.3,31.6,29.75,NNW,345,4.0,6.0,11,0.00,,,0.00,meteohub,2013-03-02 21:06:00,
2013-03-02 13:12:00,93.7,31.3,29.75,NW,309,5.0,5.0,11,0.00,,,0.00,meteohub,2013-03-02 21:12:00,
2013-03-02 13:18:00,88.7,31.5,29.75,South,176,4.0,6.0,13,0.00,,,0.00,meteohub,2013-03-02 21:18:00,
2013-03-02 13:24:00,95.7,32.9,29.75,SW,221,3.0,6.0,11,0.00,,,0.00,meteohub,2013-03-02 21:24:00,
2013-03-02 13:30:00,89.2,32.0,29.75,SSW,197,4.0,8.0,13,0.00,,,0.00,meteohub,2013-03-02 21:30:00,
2013-03-02 13:36:00,88.5,31.5,29.75,WNW,283,4.0,8.0,13,0.00,,,0.00,meteohub,2013-03-02 21:36:00,
2013-03-02 13:42:00,92.3,32.4,29.75,NW,326,4.0,8.0,12,0.00,,,0.00,meteohub,2013-03-02 21:42:00,
2013-03-02 13:48:00,92.7,32.7,29.75,SW,218,5.0,6.0,12,0.00,,,0.00,meteohub,2013-03-02 21:48:00,
2013-03-02 13:54:00,86.0,29.5,29.75,West,274,6.0,6.0,13,0.00,,,0.00,meteohub,2013-03-02 21:54:00,
2013-03-02 14:00:00,85.6,29.1,29.75,WNW,292,4.0,8.0,13,0.00,,,0.00,meteohub,2013-03-02 22:00:00,
2013-03-02 14:06:00,88.2,31.1,29.75,NW,306,3.0,8.0,13,0.00,,,0.00,meteohub,2013-03-02 22:06:00,
2013-03-02 14:13:00,88.9,31.6,29.72,South,187,3.0,6.0,13,0.00,,,0.00,meteohub,2013-03-02 22:13:00,
2013-03-02 14:19:00,85.3,28.9,29.72,SSW,209,6.0,6.0,13,0.00,,,0.00,meteohub,2013-03-02 22:19:00,
2013-03-02 14:25:00,89.2,32.0,29.72,NW,321,0.0,6.0,13,0.00,,,0.00,meteohub,2013-03-02 22:25:00,
2013-03-02 14:31:00,82.8,28.8,29.72,WSW,257,3.0,6.0,14,0.00,,,0.00,meteohub,2013-03-02 22:31:00,
2013-03-02 14:37:00,86.7,30.0,29.72,NNW,342,0.0,6.0,13,0.00,,,0.00,meteohub,2013-03-02 22:37:00,
2013-03-02 14:43:00,79.0,27.3,29.72,SW,215,3.0,6.0,15,0.00,,,0.00,meteohub,2013-03-02 22:43:00,
2013-03-02 14:49:00,78.8,27.3,29.72,NNW,337,3.0,5.0,15,0.00,,,0.00,meteohub,2013-03-02 22:49:00,
2013-03-02 14:55:00,84.2,28.0,29.72,WNW,290,4.0,5.0,13,0.00,,,0.00,meteohub,2013-03-02 22:55:00,
2013-03-02 15:01:00,87.4,30.6,29.72,NW,322,2.0,6.0,13,0.00,,,0.00,meteohub,2013-03-02 23:01:00,
2013-03-02 15:07:00,81.9,28.0,29.72,NW,304,0.0,6.0,14,0.00,,,0.00,meteohub,2013-03-02 23:07:00,
2013-03-02 15:13:00,79.5,27.9,29.72,NW,318,5.0,6.0,15,0.00,,,0.00,meteohub,2013-03-02 23:13:00,
2013-03-02 15:19:00,76.6,25.5,29.72,WSW,255,0.0,5.0,15,0.00,,,0.00,meteohub,2013-03-02 23:19:00,
2013-03-02 15:25:00,76.8,25.7,29.72,WSW,249,3.0,5.0,15,0.00,,,0.00,meteohub,2013-03-02 23:25:00,
2013-03-02 15:31:00,79.9,28.0,29.72,NNW,337,4.0,5.0,15,0.00,,,0.00,meteohub,2013-03-02 23:31:00,
2013-03-02 15:37:00,87.1,30.2,29.72,WNW,283,5.0,5.0,13,0.00,,,0.00,meteohub,2013-03-02 23:37:00,
2013-03-02 15:43:00,89.4,32.2,29.69,NW,325,2.0,5.0,13,0.00,,,0.00,meteohub,2013-03-02 23:43:00,
2013-03-02 15:49:00,90.5,30.9,29.69,WNW,290,4.0,5.0,12,0.00,,,0.00,meteohub,2013-03-02 23:49:00,
2013-03-02 15:55:00,85.8,29.3,29.69,WSW,246,3.0,6.0,13,0.00,,,0.00,meteohub,2013-03-02 23:55:00,
2013-03-02 16:01:00,81.7,27.9,29.69,NW,317,3.0,6.0,14,0.00,,,0.00,meteohub,2013-03-03 00:01:00,
2013-03-02 16:07:00,79.9,28.0,29.69,WSW,250,2.0,6.0,15,0.00,,,0.00,meteohub,2013-03-03 00:07:00,
2013-03-02 16:13:00,83.5,29.3,29.69,WNW,292,3.0,5.0,14,0.00,,,0.00,meteohub,2013-03-03 00:13:00,
2013-03-02 16:19:00,78.6,27.1,29.69,NW,320,3.0,6.0,15,0.00,,,0.00,meteohub,2013-03-03 00:19:00,
2013-03-02 16:25:00,76.8,25.7,29.69,NNW,336,3.0,6.0,15,0.00,,,0.00,meteohub,2013-03-03 00:25:00,
2013-03-02 16:31:00,82.2,28.2,29.69,West,278,3.0,4.0,14,0.00,,,0.00,meteohub,2013-03-03 00:31:00,
2013-03-02 16:37:00,83.5,29.3,29.69,West,277,3.0,4.0,14,0.00,,,0.00,meteohub,2013-03-03 00:37:00,
2013-03-02 16:43:00,87.1,30.2,29.69,WNW,295,0.0,4.0,13,0.00,,,0.00,meteohub,2013-03-03 00:43:00,
2013-03-02 16:49:00,87.8,30.9,29.69,West,259,0.0,4.0,13,0.00,,,0.00,meteohub,2013-03-03 00:49:00,
2013-03-02 16:55:00,84.2,28.0,29.69,WSW,241,2.0,4.0,13,0.00,,,0.00,meteohub,2013-03-03 00:55:00,
2013-03-02 17:02:00,76.3,25.2,29.69,SSW,211,4.0,5.0,15,0.00,,,0.00,meteohub,2013-03-03 01:02:00,
2013-03-02 17:08:00,74.1,25.0,29.69,SSW,211,4.0,6.0,16,0.00,,,0.00,meteohub,2013-03-03 01:08:00,
2013-03-02 17:14:00,75.0,25.7,29.69,SSW,213,0.0,6.0,16,0.00,,,0.00,meteohub,2013-03-03 01:14:00,
2013-03-02 17:20:00,75.9,25.0,29.69,SSW,213,0.0,4.0,15,0.00,,,0.00,meteohub,2013-03-03 01:20:00,
2013-03-02 17:26:00,73.2,24.3,29.69,SW,225,0.0,4.0,16,0.00,,,0.00,meteohub,2013-03-03 01:26:00,
2013-03-02 17:32:00,69.8,23.0,29.69,SSW,212,0.0,0.0,17,0.00,,,0.00,meteohub,2013-03-03 01:32:00,
2013-03-02 17:38:00,68.7,22.1,29.69,SW,215,0.0,0.0,17,0.00,,,0.00,meteohub,2013-03-03 01:38:00,
2013-03-02 17:44:00,67.3,21.0,29.69,SW,215,0.0,3.0,17,0.00,,,0.00,meteohub,2013-03-03 01:44:00,
2013-03-02 17:50:00,66.4,24.1,29.69,North,4,0.0,3.0,20,0.00,,,0.00,meteohub,2013-03-03 01:50:00,
2013-03-02 17:56:00,65.1,20.5,29.72,NW,313,0.0,2.0,18,0.00,,,0.00,meteohub,2013-03-03 01:56:00,
2013-03-02 18:02:00,65.1,23.0,29.72,West,264,0.0,3.0,20,0.00,,,0.00,meteohub,2013-03-03 02:02:00,
2013-03-02 18:08:00,64.6,22.6,29.72,West,266,0.0,3.0,20,0.00,,,0.00,meteohub,2013-03-03 02:08:00,
2013-03-02 18:14:00,63.9,23.2,29.72,WSW,249,0.0,3.0,21,0.00,,,0.00,meteohub,2013-03-03 02:14:00,
2013-03-02 18:20:00,63.5,25.0,29.72,WSW,249,0.0,0.0,23,0.00,,,0.00,meteohub,2013-03-03 02:20:00,
2013-03-02 18:26:00,63.1,25.7,29.72,WSW,249,0.0,0.0,24,0.00,,,0.00,meteohub,2013-03-03 02:26:00,
2013-03-02 18:32:00,63.1,25.7,29.72,WSW,249,0.0,0.0,24,0.00,,,0.00,meteohub,2013-03-03 02:32:00,
2013-03-02 18:38:00,63.5,26.1,29.72,WSW,249,0.0,0.0,24,0.00,,,0.00,meteohub,2013-03-03 02:38:00,
2013-03-02 18:44:00,63.3,27.0,29.72,WSW,249,0.0,0.0,25,0.00,,,0.00,meteohub,2013-03-03 02:44:00,
2013-03-02 18:50:00,63.7,29.1,29.72,WSW,249,0.0,0.0,27,0.00,,,0.00,meteohub,2013-03-03 02:50:00,
2013-03-02 18:56:00,63.1,29.5,29.72,WSW,249,0.0,0.0,28,0.00,,,0.00,meteohub,2013-03-03 02:56:00,
2013-03-02 19:02:00,63.3,32.2,29.72,WSW,249,0.0,0.0,31,0.00,,,0.00,meteohub,2013-03-03 03:02:00,
2013-03-02 19:08:00,63.1,33.6,29.72,WSW,249,0.0,0.0,33,0.00,,,0.00,meteohub,2013-03-03 03:08:00,
2013-03-02 19:14:00,62.8,33.3,29.72,WSW,249,0.0,0.0,33,0.00,,,0.00,meteohub,2013-03-03 03:14:00,
2013-03-02 19:20:00,63.1,34.3,29.72,WSW,249,0.0,0.0,34,0.00,,,0.00,meteohub,2013-03-03 03:20:00,
2013-03-02 19:26:00,62.8,34.0,29.72,WSW,248,0.0,0.0,34,0.00,,,0.00,meteohub,2013-03-03 03:26:00,
2013-03-02 19:32:00,61.7,33.8,29.72,WSW,248,0.0,0.0,35,0.00,,,0.00,meteohub,2013-03-03 03:32:00,
2013-03-02 19:38:00,61.5,33.6,29.72,WSW,248,0.0,0.0,35,0.00,,,0.00,meteohub,2013-03-03 03:38:00,
2013-03-02 19:44:00,61.5,33.6,29.72,WSW,248,0.0,0.0,35,0.00,,,0.00,meteohub,2013-03-03 03:44:00,
2013-03-02 19:51:00,61.0,33.1,29.72,WSW,248,0.0,0.0,35,0.00,,,0.00,meteohub,2013-03-03 03:51:00,
2013-03-02 19:57:00,61.0,33.1,29.72,WSW,248,0.0,0.0,35,0.00,,,0.00,meteohub,2013-03-03 03:57:00,
2013-03-02 20:03:00,61.0,32.4,29.72,WSW,248,0.0,0.0,34,0.00,,,0.00,meteohub,2013-03-03 04:03:00,
2013-03-02 20:09:00,60.3,31.1,29.72,WSW,248,0.0,0.0,33,0.00,,,0.00,meteohub,2013-03-03 04:09:00,
2013-03-02 20:15:00,60.4,29.7,29.72,WNW,286,0.0,0.0,31,0.00,,,0.00,meteohub,2013-03-03 04:15:00,
2013-03-02 20:21:00,60.1,28.6,29.72,WNW,286,0.0,0.0,30,0.00,,,0.00,meteohub,2013-03-03 04:21:00,
2013-03-02 20:27:00,59.5,28.0,29.72,WNW,286,0.0,0.0,30,0.00,,,0.00,meteohub,2013-03-03 04:27:00,
2013-03-02 20:33:00,59.2,28.6,29.72,WNW,286,0.0,0.0,31,0.00,,,0.00,meteohub,2013-03-03 04:33:00,
2013-03-02 20:39:00,59.5,27.3,29.72,WNW,286,0.0,0.0,29,0.00,,,0.00,meteohub,2013-03-03 04:39:00,
2013-03-02 20:45:00,59.4,26.2,29.72,WNW,286,0.0,0.0,28,0.00,,,0.00,meteohub,2013-03-03 04:45:00,
2013-03-02 20:51:00,59.4,27.1,29.72,NW,318,0.0,0.0,29,0.00,,,0.00,meteohub,2013-03-03 04:51:00,
2013-03-02 20:57:00,59.2,27.0,29.75,NW,318,0.0,0.0,29,0.00,,,0.00,meteohub,2013-03-03 04:57:00,
2013-03-02 21:01:00,59.2,27.7,29.75,NW,318,0.0,0.0,30,0.00,,,0.00,meteohub,2013-03-03 05:01:00,
2013-03-02 21:03:00,59.9,30.0,29.75,NW,318,0.0,0.0,32,0.00,,,0.00,meteohub,2013-03-03 05:03:00,
2013-03-02 21:09:00,59.9,31.5,29.75,NW,318,0.0,0.0,34,0.00,,,0.00,meteohub,2013-03-03 05:09:00,
2013-03-02 21:13:00,59.7,31.3,29.75,NW,318,0.0,0.0,34,0.00,,,0.00,meteohub,2013-03-03 05:13:00,
2013-03-02 21:19:00,59.2,30.7,29.75,NW,318,0.0,0.0,34,0.00,,,0.00,meteohub,2013-03-03 05:19:00,
2013-03-02 21:25:00,59.0,30.7,29.75,NW,318,0.0,0.0,34,0.00,,,0.00,meteohub,2013-03-03 05:25:00,
2013-03-02 21:31:00,58.6,30.4,29.75,NW,318,0.0,0.0,34,0.00,,,0.00,meteohub,2013-03-03 05:31:00,
2013-03-02 21:37:00,58.6,28.9,29.75,North,357,0.0,0.0,32,0.00,,,0.00,meteohub,2013-03-03 05:37:00,
2013-03-02 21:43:00,58.3,27.9,29.75,North,357,0.0,0.0,31,0.00,,,0.00,meteohub,2013-03-03 05:43:00,
2013-03-02 21:49:00,58.1,27.7,29.75,North,357,0.0,0.0,31,0.00,,,0.00,meteohub,2013-03-03 05:49:00,
2013-03-02 21:55:00,58.1,27.7,29.75,North,357,0.0,0.0,31,0.00,,,0.00,meteohub,2013-03-03 05:55:00,
2013-03-02 22:01:00,58.1,27.7,29.75,North,357,0.0,0.0,31,0.00,,,0.00,meteohub,2013-03-03 06:01:00,
2013-03-02 22:07:00,57.7,27.3,29.75,North,357,0.0,0.0,31,0.00,,,0.00,meteohub,2013-03-03 06:07:00,
2013-03-02 22:13:00,58.1,28.4,29.75,North,357,0.0,0.0,32,0.00,,,0.00,meteohub,2013-03-03 06:13:00,
2013-03-02 22:19:00,57.9,28.2,29.75,NNE,16,0.0,0.0,32,0.00,,,0.00,meteohub,2013-03-03 06:19:00,
2013-03-02 22:25:00,57.6,27.9,29.75,NNE,16,0.0,0.0,32,0.00,,,0.00,meteohub,2013-03-03 06:25:00,
2013-03-02 22:31:00,57.4,28.6,29.75,NNE,16,0.0,0.0,33,0.00,,,0.00,meteohub,2013-03-03 06:31:00,
2013-03-02 22:38:00,57.2,28.4,29.75,NNE,20,0.0,0.0,33,0.00,,,0.00,meteohub,2013-03-03 06:38:00,
2013-03-02 22:44:00,57.6,29.5,29.75,NNE,20,0.0,0.0,34,0.00,,,0.00,meteohub,2013-03-03 06:44:00,
2013-03-02 22:50:00,57.6,29.5,29.75,North,357,0.0,0.0,34,0.00,,,0.00,meteohub,2013-03-03 06:50:00,
2013-03-02 22:56:00,57.9,28.2,29.75,North,0,0.0,0.0,32,0.00,,,0.00,meteohub,2013-03-03 06:56:00,
2013-03-02 23:02:00,57.2,27.7,29.75,North,0,0.0,0.0,32,0.00,,,0.00,meteohub,2013-03-03 07:02:00,
2013-03-02 23:08:00,57.2,28.4,29.75,North,357,0.0,0.0,33,0.00,,,0.00,meteohub,2013-03-03 07:08:00,
2013-03-02 23:14:00,57.0,28.9,29.72,North,0,0.0,0.0,34,0.00,,,0.00,meteohub,2013-03-03 07:14:00,
2013-03-02 23:20:00,57.0,28.9,29.72,NNE,30,0.0,0.0,34,0.00,,,0.00,meteohub,2013-03-03 07:20:00,
2013-03-02 23:26:00,57.2,29.1,29.72,NNE,30,0.0,0.0,34,0.00,,,0.00,meteohub,2013-03-03 07:26:00,
2013-03-02 23:32:00,57.2,29.8,29.72,NNE,30,0.0,0.0,35,0.00,,,0.00,meteohub,2013-03-03 07:32:00,
2013-03-02 23:38:00,57.4,30.0,29.72,NNE,30,0.0,0.0,35,0.00,,,0.00,meteohub,2013-03-03 07:38:00,
2013-03-02 23:44:00,57.9,30.4,29.72,NNE,30,0.0,0.0,35,0.00,,,0.00,meteohub,2013-03-03 07:44:00,
2013-03-02 23:50:00,57.6,30.0,29.72,NNE,30,0.0,0.0,35,0.00,,,0.00,meteohub,2013-03-03 07:50:00,
2013-03-02 23:56:00,57.4,29.3,29.72,NNE,30,0.0,0.0,34,0.00,,,0.00,meteohub,2013-03-03 07:56:00,